LSP034 SCQP-SCEL

Flight info

Callsign LSP034
Flight time 0h 57m
Altitude 34000
Route KETIR7E KETIR UQ802 EROLO EROLO7F
Aircraft B739/M-SDE2E3FGHIRWXY/LB1

Departure

Time 2026-04-15 02:54
Airport La Araucanía International Airport (SCQP)

Arrival

Time 2026-04-15 03:52
Airport Comodoro Arturo Merino Benítez International Airport (SCEL)
Time Latitude Longitude Altitude Speed Heading
2026-04-15 02:25 -38.92658 -72.64750 312 ft 0 kts 106°
2026-04-15 02:45 -38.92655 -72.64763 311 ft 4 kts 105°
2026-04-15 02:45 -38.92648 -72.64797 312 ft 4 kts 102°
2026-04-15 02:45 -38.92644 -72.64831 312 ft 4 kts 91°
2026-04-15 02:45 -38.92647 -72.64863 312 ft 4 kts 51°
2026-04-15 02:46 -38.92655 -72.64872 311 ft 0 kts 18°
2026-04-15 02:48 -38.92649 -72.64869 312 ft 2 kts 18°
2026-04-15 02:48 -38.92610 -72.64853 312 ft 9 kts 18°
2026-04-15 02:49 -38.92561 -72.64833 312 ft 13 kts 17°
2026-04-15 02:49 -38.92471 -72.64798 312 ft 10 kts 17°
2026-04-15 02:49 -38.92409 -72.64821 312 ft 10 kts 301°
2026-04-15 02:49 -38.92379 -72.64926 311 ft 0 kts 288°
2026-04-15 02:50 -38.92378 -72.64927 311 ft 1 kts 288°
2026-04-15 02:50 -38.92365 -72.64978 312 ft 11 kts 288°
2026-04-15 02:51 -38.92280 -72.65038 313 ft 20 kts
2026-04-15 02:51 -38.92119 -72.64975 313 ft 27 kts 17°
2026-04-15 02:51 -38.91943 -72.64906 313 ft 26 kts 17°
2026-04-15 02:51 -38.91779 -72.64841 314 ft 24 kts 15°
2026-04-15 02:52 -38.91651 -72.64793 313 ft 11 kts
2026-04-15 02:52 -38.91582 -72.64811 312 ft 10 kts 355°
2026-04-15 02:52 -38.91553 -72.64764 312 ft 7 kts 132°
2026-04-15 02:52 -38.91590 -72.64767 312 ft 5 kts 197°
2026-04-15 02:53 -38.91598 -72.64771 312 ft 0 kts 197°
2026-04-15 02:53 -38.91613 -72.64777 311 ft 18 kts 197°
2026-04-15 02:54 -38.92001 -72.64929 312 ft 96 kts 197°
2026-04-15 02:54 -38.92855 -72.65265 314 ft 157 kts 197°
2026-04-15 02:54 -38.93977 -72.65709 797 ft 167 kts 196°
2026-04-15 02:54 -38.95127 -72.66180 1318 ft 187 kts 197°
2026-04-15 02:55 -38.96392 -72.66665 2011 ft 194 kts 197°
2026-04-15 02:55 -38.97757 -72.67202 2365 ft 220 kts 198°
2026-04-15 02:55 -38.99303 -72.67817 2589 ft 245 kts 198°
2026-04-15 02:55 -39.00931 -72.68604 3125 ft 258 kts 213°
2026-04-15 02:56 -39.02121 -72.70329 3715 ft 263 kts 249°
2026-04-15 02:56 -39.02440 -72.72615 4589 ft 260 kts 278°
2026-04-15 02:56 -39.01857 -72.74769 5507 ft 256 kts 307°
2026-04-15 02:56 -39.00525 -72.76243 6405 ft 256 kts 335°
2026-04-15 02:57 -38.98782 -72.76733 7233 ft 261 kts 355°
2026-04-15 02:57 -38.96934 -72.76699 7933 ft 270 kts
2026-04-15 02:57 -38.95036 -72.76542 8649 ft 276 kts
2026-04-15 02:57 -38.93106 -72.76368 9448 ft 280 kts
2026-04-15 02:58 -38.91147 -72.76204 10206 ft 285 kts
2026-04-15 02:58 -38.89093 -72.76048 10493 ft 307 kts 360°
2026-04-15 02:58 -38.86874 -72.75892 10681 ft 331 kts
2026-04-15 02:58 -38.84521 -72.75733 10836 ft 353 kts
2026-04-15 02:59 -38.82000 -72.75564 11002 ft 373 kts
2026-04-15 02:59 -38.79368 -72.75391 11411 ft 383 kts
2026-04-15 02:59 -38.76685 -72.75215 11983 ft 388 kts
2026-04-15 02:59 -38.73981 -72.74911 12556 ft 395 kts
2026-04-15 03:00 -38.71386 -72.73630 13130 ft 403 kts 24°
2026-04-15 03:00 -38.68852 -72.72020 13692 ft 408 kts 24°
2026-04-15 03:00 -38.66278 -72.70410 14161 ft 414 kts 24°
2026-04-15 03:00 -38.63664 -72.68798 14663 ft 418 kts 23°
2026-04-15 03:01 -38.61032 -72.67193 15203 ft 420 kts 23°
2026-04-15 03:01 -38.58383 -72.65590 15759 ft 422 kts 23°
2026-04-15 03:01 -38.55743 -72.64000 16270 ft 425 kts 23°
2026-04-15 03:01 -38.53049 -72.62381 16740 ft 429 kts 23°
2026-04-15 03:02 -38.50335 -72.60753 17221 ft 432 kts 23°
2026-04-15 03:02 -38.47606 -72.59117 17697 ft 435 kts 23°
2026-04-15 03:02 -38.44864 -72.57473 18202 ft 437 kts 23°
2026-04-15 03:02 -38.42102 -72.55819 18618 ft 440 kts 23°
2026-04-15 03:03 -38.39325 -72.54157 18993 ft 442 kts 23°
2026-04-15 03:03 -38.36528 -72.52484 19382 ft 445 kts 23°
2026-04-15 03:03 -38.33715 -72.50803 19763 ft 447 kts 23°
2026-04-15 03:03 -38.30884 -72.49112 20144 ft 450 kts 23°
2026-04-15 03:04 -38.28041 -72.47416 20510 ft 452 kts 23°
2026-04-15 03:04 -38.25198 -72.45770 20877 ft 454 kts 19°
2026-04-15 03:04 -38.22164 -72.44642 21227 ft 453 kts 10°
2026-04-15 03:04 -38.19071 -72.43813 21631 ft 454 kts
2026-04-15 03:05 -38.15964 -72.43038 21994 ft 457 kts
2026-04-15 03:05 -38.12829 -72.42249 22334 ft 460 kts
2026-04-15 03:05 -38.09690 -72.41430 22685 ft 462 kts
2026-04-15 03:05 -38.06534 -72.40578 23028 ft 465 kts
2026-04-15 03:06 -38.03363 -72.39703 23367 ft 467 kts
2026-04-15 03:06 -38.00175 -72.38812 23688 ft 470 kts
2026-04-15 03:06 -37.96976 -72.37914 23997 ft 471 kts
2026-04-15 03:06 -37.93775 -72.37017 24288 ft 473 kts
2026-04-15 03:07 -37.90553 -72.36115 24563 ft 475 kts
2026-04-15 03:07 -37.87320 -72.35212 24839 ft 477 kts
2026-04-15 03:07 -37.84067 -72.34306 25115 ft 479 kts
2026-04-15 03:07 -37.80809 -72.33400 25392 ft 481 kts
2026-04-15 03:08 -37.77524 -72.32487 25679 ft 483 kts
2026-04-15 03:08 -37.74235 -72.31573 25939 ft 485 kts
2026-04-15 03:08 -37.70978 -72.30669 26212 ft 487 kts
2026-04-15 03:08 -37.67667 -72.29751 26470 ft 489 kts
2026-04-15 03:09 -37.64339 -72.28829 26721 ft 491 kts 10°
2026-04-15 03:09 -37.60993 -72.27860 26971 ft 493 kts 11°
2026-04-15 03:09 -37.57662 -72.26849 27282 ft 493 kts 11°
2026-04-15 03:09 -37.54329 -72.25817 27680 ft 492 kts 11°
2026-04-15 03:10 -37.51010 -72.24786 28114 ft 490 kts 11°
2026-04-15 03:10 -37.47706 -72.23763 28578 ft 488 kts 11°
2026-04-15 03:10 -37.44412 -72.22751 28989 ft 487 kts 11°
2026-04-15 03:10 -37.41153 -72.21755 29353 ft 487 kts 11°
2026-04-15 03:11 -37.37862 -72.20754 29772 ft 487 kts 11°
2026-04-15 03:11 -37.34573 -72.19756 30223 ft 486 kts 11°
2026-04-15 03:11 -37.31289 -72.18761 30624 ft 484 kts 11°
2026-04-15 03:11 -37.28019 -72.17771 31007 ft 483 kts 11°
2026-04-15 03:12 -37.24762 -72.16785 31442 ft 480 kts 11°
2026-04-15 03:12 -37.21520 -72.15805 31838 ft 479 kts 11°
2026-04-15 03:12 -37.18286 -72.14829 32179 ft 478 kts 11°
2026-04-15 03:12 -37.15046 -72.13851 32511 ft 477 kts 11°
2026-04-15 03:13 -37.11818 -72.12878 32876 ft 476 kts 10°
2026-04-15 03:13 -37.08598 -72.11908 33238 ft 475 kts 10°
2026-04-15 03:13 -37.05378 -72.10938 33586 ft 474 kts 10°
2026-04-15 03:13 -37.02175 -72.09975 33932 ft 472 kts 10°
2026-04-15 03:14 -36.99016 -72.09026 34175 ft 473 kts 10°
2026-04-15 03:14 -36.92603 -72.07102 34149 ft 472 kts 10°
2026-04-15 03:15 -36.86217 -72.05188 34154 ft 470 kts 10°
2026-04-15 03:15 -36.79874 -72.03291 34139 ft 468 kts 10°
2026-04-15 03:16 -36.73536 -72.01399 34158 ft 467 kts 10°
2026-04-15 03:16 -36.67254 -71.99527 34148 ft 467 kts 10°
2026-04-15 03:17 -36.60915 -71.97641 34150 ft 467 kts 10°
2026-04-15 03:17 -36.54586 -71.95761 34140 ft 468 kts 10°
2026-04-15 03:18 -36.48231 -71.93877 34142 ft 469 kts 10°
2026-04-15 03:18 -36.41876 -71.91995 34145 ft 470 kts 10°
2026-04-15 03:19 -36.35503 -71.90112 34144 ft 471 kts 10°
2026-04-15 03:19 -36.29118 -71.88227 34128 ft 472 kts 10°
2026-04-15 03:20 -36.22755 -71.86353 34140 ft 472 kts 10°
2026-04-15 03:20 -36.16359 -71.84472 34138 ft 472 kts 10°
2026-04-15 03:21 -36.09954 -71.82591 34140 ft 472 kts 10°
2026-04-15 03:21 -36.00364 -71.79782 34130 ft 472 kts 10°
2026-04-15 03:22 -35.94016 -71.77926 34132 ft 471 kts 10°
2026-04-15 03:22 -35.87631 -71.76062 34130 ft 471 kts 10°
2026-04-15 03:23 -35.81240 -71.74199 34121 ft 471 kts 10°
2026-04-15 03:23 -35.74856 -71.72342 34132 ft 471 kts 11°
2026-04-15 03:24 -35.68473 -71.70488 34131 ft 470 kts 10°
2026-04-15 03:24 -35.62144 -71.68653 34128 ft 470 kts 10°
2026-04-15 03:25 -35.55774 -71.66808 34121 ft 470 kts 11°
2026-04-15 03:25 -35.49406 -71.64967 34131 ft 469 kts 11°
2026-04-15 03:26 -35.43054 -71.63132 34130 ft 469 kts 11°
2026-04-15 03:26 -35.36705 -71.61298 34127 ft 468 kts 11°
2026-04-15 03:27 -35.30404 -71.59480 34115 ft 468 kts 11°
2026-04-15 03:27 -35.24063 -71.57652 34127 ft 468 kts 11°
2026-04-15 03:28 -35.17716 -71.55826 34128 ft 468 kts 11°
2026-04-15 03:28 -35.11375 -71.54005 34118 ft 467 kts 11°
2026-04-15 03:29 -35.05044 -71.52190 34119 ft 467 kts 11°
2026-04-15 03:29 -34.98721 -71.50380 34126 ft 466 kts 11°
2026-04-15 03:30 -34.92398 -71.48572 34126 ft 466 kts 11°
2026-04-15 03:30 -34.86080 -71.46769 34126 ft 466 kts 11°
2026-04-15 03:31 -34.79809 -71.44982 34106 ft 466 kts 10°
2026-04-15 03:31 -34.73495 -71.43185 34114 ft 464 kts
2026-04-15 03:32 -34.67203 -71.41397 34115 ft 464 kts
2026-04-15 03:32 -34.61022 -71.39148 34128 ft 466 kts 18°
2026-04-15 03:33 -34.55035 -71.36065 34116 ft 467 kts 20°
2026-04-15 03:33 -34.49066 -71.32949 34112 ft 466 kts 19°
2026-04-15 03:34 -34.43109 -71.29965 34069 ft 466 kts 18°
2026-04-15 03:34 -34.40057 -71.28466 33264 ft 476 kts 18°
2026-04-15 03:34 -34.36990 -71.26966 32495 ft 474 kts 18°
2026-04-15 03:35 -34.33924 -71.25468 31616 ft 475 kts 19°
2026-04-15 03:35 -34.30861 -71.23971 30746 ft 476 kts 19°
2026-04-15 03:35 -34.27781 -71.22465 29734 ft 477 kts 19°
2026-04-15 03:35 -34.24693 -71.20955 28680 ft 479 kts 19°
2026-04-15 03:36 -34.21598 -71.19443 27660 ft 480 kts 19°
2026-04-15 03:36 -34.18502 -71.17932 26604 ft 481 kts 20°
2026-04-15 03:36 -34.15428 -71.16432 25664 ft 482 kts 20°
2026-04-15 03:36 -34.12336 -71.14924 24934 ft 476 kts 20°
2026-04-15 03:37 -34.09277 -71.13432 24168 ft 472 kts 20°
2026-04-15 03:37 -34.06244 -71.11956 23346 ft 469 kts 20°
2026-04-15 03:37 -34.03232 -71.10490 22514 ft 464 kts 20°
2026-04-15 03:37 -34.00251 -71.09041 21724 ft 459 kts 20°
2026-04-15 03:38 -33.97302 -71.07610 20977 ft 454 kts 20°
2026-04-15 03:38 -33.95370 -71.06673 20474 ft 450 kts 20°
2026-04-15 03:38 -33.92481 -71.05272 19742 ft 446 kts 20°
2026-04-15 03:38 -33.89613 -71.03883 18998 ft 442 kts 21°
2026-04-15 03:39 -33.86797 -71.02520 18257 ft 432 kts 21°
2026-04-15 03:39 -33.84032 -71.01182 17453 ft 423 kts 21°
2026-04-15 03:39 -33.81317 -70.99869 16730 ft 419 kts 21°
2026-04-15 03:39 -33.77738 -70.98140 15807 ft 414 kts 21°
2026-04-15 03:40 -33.75934 -70.97268 15337 ft 412 kts 21°
2026-04-15 03:40 -33.73285 -70.95990 14680 ft 409 kts 21°
2026-04-15 03:40 -33.70672 -70.94729 14644 ft 403 kts 21°
2026-04-15 03:40 -33.68086 -70.93483 14698 ft 408 kts 21°
2026-04-15 03:41 -33.65437 -70.92207 14696 ft 409 kts 21°
2026-04-15 03:41 -33.62831 -70.90951 14359 ft 397 kts 21°
2026-04-15 03:41 -33.60280 -70.89724 13448 ft 392 kts 21°
2026-04-15 03:41 -33.57749 -70.88507 12468 ft 389 kts 21°
2026-04-15 03:42 -33.55328 -70.87191 12030 ft 371 kts 29°
2026-04-15 03:42 -33.53204 -70.85604 11867 ft 349 kts 33°
2026-04-15 03:42 -33.51222 -70.84055 11532 ft 334 kts 32°
2026-04-15 03:42 -33.49288 -70.82584 11189 ft 323 kts 32°
2026-04-15 03:43 -33.47434 -70.81205 11042 ft 305 kts 32°
2026-04-15 03:43 -33.45625 -70.79972 10755 ft 293 kts 21°
2026-04-15 03:43 -33.43650 -70.79609 10426 ft 285 kts 354°
2026-04-15 03:43 -33.41759 -70.80182 10044 ft 280 kts 334°
2026-04-15 03:44 -33.40102 -70.81399 9538 ft 279 kts 326°
2026-04-15 03:44 -33.38521 -70.82700 9117 ft 279 kts 326°
2026-04-15 03:44 -33.36923 -70.84010 8774 ft 278 kts 326°
2026-04-15 03:44 -33.35324 -70.85311 8465 ft 277 kts 326°
2026-04-15 03:45 -33.33732 -70.86602 8168 ft 276 kts 326°
2026-04-15 03:45 -33.32139 -70.87890 7870 ft 274 kts 326°
2026-04-15 03:45 -33.30561 -70.89162 7568 ft 273 kts 326°
2026-04-15 03:45 -33.28989 -70.90429 7279 ft 272 kts 326°
2026-04-15 03:46 -33.27427 -70.91686 6989 ft 271 kts 326°
2026-04-15 03:46 -33.25854 -70.92891 6687 ft 266 kts 333°
2026-04-15 03:46 -33.24124 -70.93438 6376 ft 259 kts
2026-04-15 03:46 -33.22405 -70.93008 6114 ft 250 kts 25°
2026-04-15 03:47 -33.20981 -70.91889 5851 ft 242 kts 42°
2026-04-15 03:47 -33.19973 -70.90350 5627 ft 231 kts 65°
2026-04-15 03:47 -33.19552 -70.88559 5366 ft 220 kts 85°
2026-04-15 03:47 -33.19643 -70.86779 5134 ft 212 kts 104°
2026-04-15 03:48 -33.20151 -70.85190 5037 ft 201 kts 118°
2026-04-15 03:48 -33.20963 -70.83797 4724 ft 206 kts 132°
2026-04-15 03:48 -33.22007 -70.82678 4517 ft 199 kts 144°
2026-04-15 03:48 -33.23164 -70.81860 4309 ft 188 kts 154°
2026-04-15 03:49 -33.24377 -70.81339 4080 ft 186 kts 165°
2026-04-15 03:49 -33.25644 -70.81086 3843 ft 182 kts 175°
2026-04-15 03:49 -33.26862 -70.80992 3633 ft 169 kts 175°
2026-04-15 03:49 -33.28025 -70.80885 3407 ft 169 kts 174°
2026-04-15 03:50 -33.29198 -70.80802 3162 ft 168 kts 176°
2026-04-15 03:50 -33.30364 -70.80738 2931 ft 167 kts 177°
2026-04-15 03:50 -33.31517 -70.80676 2715 ft 165 kts 177°
2026-04-15 03:50 -33.32672 -70.80614 2498 ft 167 kts 177°
2026-04-15 03:51 -33.33833 -70.80552 2273 ft 167 kts 178°
2026-04-15 03:51 -33.34987 -70.80487 2054 ft 163 kts 178°
2026-04-15 03:51 -33.36114 -70.80427 1805 ft 161 kts 180°
2026-04-15 03:51 -33.37221 -70.80365 1624 ft 159 kts 178°
2026-04-15 03:52 -33.38325 -70.80319 1572 ft 155 kts 177°
2026-04-15 03:52 -33.39217 -70.80266 1572 ft 101 kts 178°
2026-04-15 03:52 -33.39719 -70.80239 1571 ft 30 kts 176°
2026-04-15 03:52 -33.39880 -70.80220 1572 ft 20 kts 160°
2026-04-15 03:53 -33.39994 -70.80141 1570 ft 14 kts 148°
2026-04-15 03:53 -33.40028 -70.80113 1569 ft 0 kts 144°
2026-04-15 03:54 -33.40041 -70.80102 1569 ft 7 kts 143°
2026-04-15 03:54 -33.40061 -70.80030 1566 ft 12 kts 52°
2026-04-15 03:55 -33.39900 -70.80021 1565 ft 12 kts 356°
2026-04-15 03:55 -33.39820 -70.80026 1565 ft 11 kts 356°
2026-04-15 03:55 -33.39737 -70.80032 1565 ft 15 kts 357°
2026-04-15 03:55 -33.39624 -70.80038 1565 ft 13 kts 357°
2026-04-15 03:56 -33.39557 -70.80041 1565 ft 9 kts 358°
2026-04-15 03:56 -33.39530 -70.79987 1564 ft 9 kts 91°
2026-04-15 03:56 -33.39529 -70.79907 1564 ft 12 kts 88°
2026-04-15 03:56 -33.39526 -70.79796 1564 ft 14 kts 88°
2026-04-15 03:57 -33.39522 -70.79701 1563 ft 10 kts 86°
2026-04-15 03:57 -33.39518 -70.79620 1564 ft 10 kts 86°
2026-04-15 03:57 -33.39515 -70.79559 1563 ft 5 kts 88°
2026-04-15 03:57 -33.39539 -70.79537 1563 ft 5 kts 178°
2026-04-15 03:58 -33.39575 -70.79534 1563 ft 4 kts 177°
2026-04-15 03:58 -33.39586 -70.79534 1563 ft 0 kts 177°
2026-04-15 03:58 -33.39589 -70.79534 1563 ft 0 kts 177°
2026-04-15 03:58 -33.39591 -70.79534 1563 ft 0 kts 177°
2026-04-15 03:59 -33.39593 -70.79533 1563 ft 0 kts 177°